EDT,Max TemperatureF,Mean TemperatureF,Min TemperatureF,Max Dew PointF,MeanDew PointF,Min DewpointF,Max Humidity, Mean Humidity, Min Humidity, Max Sea Level PressureIn, Mean Sea Level PressureIn, Min Sea Level PressureIn, Max VisibilityMiles, Mean VisibilityMiles, Min VisibilityMiles, Max Wind SpeedMPH, Mean Wind SpeedMPH, Max Gust SpeedMPH,PrecipitationIn, CloudCover, Events, WindDirDegrees
2012-9-1,81,71,62,66,60,55,84,66,54,30.11,29.99,29.84,10,10,10,14,7,18,0.00,1,,36
2012-9-2,78,66,55,58,54,44,93,68,31,30.13,30.09,30.04,10,10,10,8,3,,0.00,4,,151
2012-9-3,75,63,51,62,54,50,100,84,51,30.21,30.16,30.13,10,5,0,13,2,,0.00,1,Fog,117
2012-9-4,77,70,66,72,68,61,94,87,73,30.16,30.02,29.90,10,8,2,13,7,21,0.16,8,Rain,168
2012-9-5,77,70,66,74,72,64,97,92,83,29.88,29.79,29.75,10,5,0,21,11,34,1.45,8,Fog-Rain-Thunderstorm,221
2012-9-6,77,68,60,66,62,59,100,89,64,29.90,29.86,29.82,10,6,0,9,1,,0.00,2,Fog,185
2012-9-7,82,73,64,72,69,63,100,88,69,29.94,29.90,29.86,10,7,0,10,3,,0.01,6,Fog,211
2012-9-8,80,75,70,73,71,68,94,88,72,29.91,29.79,29.67,10,8,1,23,11,34,0.44,7,Rain,187
2012-9-9,72,62,53,63,57,53,100,84,61,29.84,29.80,29.72,10,8,2,7,2,,0.01,2,Rain,347
2012-9-10,71,60,51,55,50,43,100,80,47,30.04,29.88,29.83,10,7,0,10,2,20,0.01,2,Fog,329
2012-9-11,71,60,50,50,46,42,93,65,39,30.27,30.18,30.05,10,10,10,12,3,,0.00,0,,282
2012-9-12,75,60,48,61,54,46,100,81,48,30.36,30.33,30.28,10,8,1,12,2,16,0.00,0,,212
2012-9-13,77,63,51,62,55,50,100,89,59,30.38,30.34,30.29,10,6,1,14,1,16,0.01,0,,211
2012-9-14,77,64,51,65,57,52,100,91,56,30.29,30.21,30.10,10,4,0,16,1,,0.01,2,Fog,204
2012-9-15,73,64,51,64,56,48,100,88,44,30.10,30.04,29.97,10,5,0,13,1,18,0.02,3,Fog-Rain,303
2012-9-16,71,58,45,52,47,43,100,74,41,30.09,30.04,29.99,10,9,2,14,2,18,0.00,0,,282
2012-9-17,73,58,42,56,49,41,100,77,44,30.10,30.07,30.04,10,10,4,10,2,,0.00,0,,229
2012-9-18,75,62,50,68,57,48,100,85,69,30.07,29.98,29.78,10,7,0,23,5,34,0.00,3,Fog-Rain,164
2012-9-19,73,62,51,70,59,46,96,80,40,30.16,29.88,29.73,10,7,2,30,14,40,0.74,5,Rain,226
2012-9-20,68,56,46,50,47,44,96,75,47,30.23,30.18,30.15,10,9,2,13,4,16,0.00,0,,26
2012-9-21,66,55,44,54,51,43,96,84,60,30.15,30.09,30.00,10,10,4,12,3,,0.00,2,,18
2012-9-22,72,64,57,64,57,55,100,89,65,29.99,29.94,29.85,10,5,1,15,4,23,0.01,6,,304
2012-9-23,71,62,48,66,53,41,93,69,36,30.08,29.94,29.82,10,10,9,16,9,24,0.00,3,,279
2012-9-24,66,56,44,48,42,39,93,67,38,30.13,30.10,30.06,10,10,6,12,3,20,0.00,1,,313
2012-9-25,71,54,37,55,46,37,97,74,44,30.19,30.16,30.14,10,9,1,20,4,28,0.00,0,,219
2012-9-26,73,66,60,64,61,54,94,79,64,30.17,30.08,30.03,10,9,5,28,10,37,0.01,5,Rain,211
2012-9-27,72,62,52,64,57,49,100,83,59,30.24,30.11,30.01,10,7,0,9,4,,0.01,5,Fog-Rain,20
2012-9-28,62,58,54,61,56,50,100,89,67,30.23,30.06,29.92,10,7,1,15,5,23,1.20,8,Rain,73
2012-9-29,61,58,55,59,56,53,100,93,87,29.92,29.89,29.87,10,8,0,6,2,,0.25,8,Fog-Rain-Thunderstorm,12
2012-9-30,61,56,53,55,54,51,97,91,77,29.89,29.79,29.74,10,7,2,8,3,,0.38,6,Rain,300